Location: *
(22.9518°S, 43.2105°W)
Time: 17:28:50
(UTC+00:00)

Daily predictions for brighter satellites

Satellite Brightness Start Highest point End
(mag) Time Altitude Azimuth Time Altitude Azimuth Time Altitude Azimuth
Cosmos 1603 4.0 21:02:00 10° SSW 21:07:45 77° WNW 21:13:25 10° NNE
Skynet4D Del rocket 4.4 21:02:48 10° W 21:08:37 52° NNW 21:13:54 10° NE
Cosmos 1025 Rocket 3.4 21:04:27 10° NNW 21:08:41 70° W 21:13:00 10° S
BREEZE-M DEB (TANK) 4.5 21:05:44 10° S 21:09:00 32° ESE 21:17:26 10° ENE
STARLINK-1151 3.3 21:07:27 10° NNW 21:10:43 51° NE 21:14:01 10° SE
STARLINK-1133 3.3 21:08:08 10° NNW 21:11:24 52° NE 21:14:43 10° SE
STARLINK-1139 3.2 21:08:49 10° NNW 21:12:06 54° NE 21:15:25 10° SE
Nadezhda 2 Rocket 4.5 21:06:26 10° N 21:12:26 63° E 21:18:31 10° SSE
STARLINK-1174 3.2 21:09:32 10° NNW 21:12:50 55° NE 21:16:10 10° SE
Palapa 6 Rocket 4.1 21:05:34 10° W 21:12:55 89° N 21:18:56 10° E
Cosmos 1536 Rocket 4.0 21:08:44 10° NNW 21:13:02 68° W 21:17:23 10° S
Envisat 3.0 21:08:47 10° SSE 21:13:56 79° ENE 21:19:00 10° N
STARLINK-1180 3.1 21:11:04 10° NNW 21:14:21 58° NE 21:17:41 10° SE
Feng Yun 1-1 Rocket 4.3 21:08:36 10° SSE 21:14:27 70° ENE 21:20:05 10° N
Cosmos 1371 Rocket 4.5 21:09:24 10° NNW 21:14:34 68° WSW 21:19:45 10° S
STARLINK-1153 3.1 21:11:47 10° NNW 21:15:07 60° NE 21:18:28 10° SE
ASTRO E2 3.6 21:11:17 10° WSW 21:15:10 47° NNW 21:19:02 10° NE
Cosmos 1624 Rocket 4.4 21:13:22 10° NNW 21:18:41 73° WSW 21:24:02 10° S
Cosmos 1953 3.2 21:20:28 10° SSE 21:23:55 27° E 21:27:20 10° NE
STARLINK-1168 3.0 21:20:50 10° NW 21:24:13 84° NE 21:27:38 10° SE
STARLINK-1164 3.0 21:21:40 10° NW 21:25:04 86° ENE 21:28:30 10° SE
STARLINK-1182 3.1 21:22:32 10° NW 21:25:56 88° ENE 21:29:22 10° SE
Cosmos 1244 Rocket 4.5 21:21:07 10° N 21:27:20 75° E 21:33:32 10° S
YAOGAN 1 3.8 21:24:27 10° SE 21:27:48 21° E 21:31:06 10° NNE
STARLINK-1172 3.1 21:24:40 10° NW 21:28:02 87° WSW 21:31:28 10° SE
Lacrosse 5 2.1 21:23:44 10° NW 21:28:49 78° SW 21:33:58 10° SSE
STARLINK-1145 3.1 21:25:33 10° NW 21:28:57 84° SW 21:32:25 10° SE
IRS-1C Rocket 4.2 21:23:43 10° S 21:29:03 83° WSW 21:34:19 10° NNW
STARLINK-1161 3.2 21:26:28 10° NW 21:29:53 81° SW 21:33:20 10° SE
Cosmos 1242 Rocket 2.5 21:27:06 10° N 21:30:41 84° E 21:34:22 10° S
STARLINK-1160 3.2 21:27:25 10° NW 21:30:49 79° SW 21:34:16 10° SE
Intelsat 5-1 Rocket 3.9 21:29:23 10° NNE 21:31:05 13° NE 21:32:51 11° ENE
GPS 2-14 Rocket1 3.2 21:27:40 10° WNW 21:31:31 48° N 21:34:36 16° E
SWIFT 2.7 21:29:13 10° W 21:33:23 56° N 21:36:46 15° ENE
ATLAS V CENTAUR R/B 4.0 21:27:02 10° W 21:36:38 46° NNW 21:38:50 15° ENE
STARLINK-1170 4.0 21:33:29 10° NW 21:37:02 53° SW 21:40:37 10° SSE
CZ-2C R/B 3.9 21:34:03 11° ENE 21:37:25 20° ESE 21:41:13 10° SSE
ATLAS 5 CENTAUR R/B 2.2 21:32:48 10° SW 21:37:26 59° WNW 21:41:31 10° NNE
Okean-O 2.6 21:34:02 10° SSE 21:38:31 71° ENE 21:42:55 10° N
Cosmos 1745 Rocket 4.3 21:33:31 10° NNE 21:39:14 42° E 21:44:58 10° SSE
Cosmos 1420 Rocket 3.9 21:37:31 10° NNW 21:42:41 84° ENE 21:47:55 10° SSE
Aureole 3 2.6 21:40:29 10° S 21:43:27 56° E 21:46:34 10° NNE
Cosmos 1470 3.6 21:40:02 10° SSW 21:43:51 53° W 21:47:37 10° N
Cosmos 2315 Rocket 4.2 21:37:36 10° S 21:43:52 77° W 21:50:07 10° N
SL-08 R/B 4.5 21:44:43 10° N 21:51:02 81° E 21:57:26 10° S
FengYun 1-2 T 4.4 21:47:58 10° S 21:53:37 79° WSW 21:59:08 10° NNW
STARLINK-1129 4.3 21:52:11 10° N 21:55:54 33° NE 21:56:34 31° ENE
USA 215 3.2 21:49:57 10° SE 21:56:33 73° NE 22:03:05 10° NNW
Cosmos 2278 Rocket 2.4 21:52:12 10° N 21:57:35 46° ENE 22:03:01 10° SSE
CZ-4 R/B 4.4 21:53:57 10° S 21:58:09 86° WSW 22:02:19 10° NNW
Cosmos 371 Rocket 3.4 21:54:14 10° N 21:58:57 54° ENE 22:03:45 10° SSE
STARLINK-1134 4.1 21:57:03 10° NNW 22:00:53 37° NE 22:01:23 36° ENE
STARLINK-1162 4.1 21:57:19 10° NNW 22:01:13 39° NE 22:01:50 37° ENE
Cosmos 1674 2.7 21:58:32 10° N 22:02:15 80° W 22:06:02 10° S
Cosmos 1190 Rocket 4.0 21:58:02 10° S 22:03:19 61° ESE 22:08:33 10° NNE
Cosmos 1271 Rocket 4.5 22:00:07 10° NNW 22:03:34 34° W 22:07:06 10° SSW
STARLINK-1135 3.9 22:01:52 10° NNW 22:05:48 43° NE 22:06:09 42° ENE
STARLINK-1157 3.9 22:02:13 10° NNW 22:06:12 45° NE 22:06:38 43° ENE
STARLINK-1141 3.8 22:06:47 10° NNW 22:10:46 49° NE 22:10:57 49° ENE
DMSP B5D2-2 4.1 22:05:46 10° NNE 22:10:53 55° ESE 22:16:04 10° S
STARLINK-1159 3.7 22:07:06 10° NNW 22:11:09 51° NE 22:11:25 50° ENE
Cosmos 1140 Rocket 3.4 22:06:43 10° S 22:11:58 63° ESE 22:15:37 20° NNE
CZ-2D R/B 3.1 22:09:01 10° SSE 22:12:56 86° E 22:16:47 10° N
Centaur D AC-29 3.2 21:36:28 10° NW 22:14:17 48° NNE 22:17:35 31° ENE
Cosmos 1892 Rocket 3.5 22:09:54 10° N 22:14:21 85° W 22:18:50 10° S
CSL-04 Rocket 3.6 22:09:15 10° SSE 22:14:41 62° ENE 22:19:58 10° N
STARLINK-1140 3.6 22:11:41 10° NNW 22:15:44 57° NE 22:15:44 57° NE
STARLINK-1171 3.6 22:12:01 10° NNW 22:16:07 59° NE 22:16:12 59° ENE
USA 229 DEB 3.9 22:09:59 10° NNW 22:17:37 70° ENE 22:25:08 10° SSE
USA 229 3.9 22:10:06 10° NNW 22:17:44 69° ENE 22:25:15 10° SSE
FUSE 3.9 22:13:47 10° WNW 22:19:11 73° NNE 22:20:30 50° E
STARLINK-1156 3.6 22:16:37 10° NNW 22:20:32 65° NE 22:20:32 65° NE
Aurora 2 Rocket 3.2 22:17:35 10° NW 22:20:05 32° N 22:20:05 32° N
STARLINK-1155 3.5 22:16:56 10° NNW 22:20:59 68° NE 22:20:59 68° NE
STARLINK-43 3.6 22:17:54 10° SSW 22:21:04 57° S 22:21:04 57° S
CZ-2C R/B 4.0 22:19:20 10° N 22:23:49 67° WNW 22:28:18 10° SSW
Cosmos 1606 Rocket 3.4 22:20:04 10° S 22:24:28 82° E 22:25:40 47° NNE
Cosmos 1452 Rocket 4.4 22:20:19 10° NNW 22:25:25 49° WSW 22:30:34 10° S
STARLINK-1148 3.6 22:21:32 10° NNW 22:25:18 69° N 22:25:18 69° N
STARLINK-1166 3.6 22:21:54 10° NNW 22:25:48 74° N 22:25:48 74° N
NOSS 3-1 (A) 4.3 22:18:12 10° N 22:26:53 56° ENE 22:31:52 26° SE
FALCON 9 R/B 2.4 22:19:42 10° WNW 22:28:30 49° SSW 22:29:37 39° SSE
Cosmos 332 Rocket 3.7 22:23:50 10° NNW 22:28:43 87° ENE 22:31:11 30° SSE
CZ-4 R/B 2.9 22:26:04 10° S 22:29:49 36° WSW 22:33:27 10° NW
Meteor 1-24 Rocket 3.5 22:24:39 10° N 22:29:58 90° SE 22:35:26 10° S
Cosmos 2228 2.8 22:25:46 10° S 22:29:56 85° S 22:29:56 85° S
STARLINK-1158 3.8 22:26:30 10° NW 22:30:06 66° NNW 22:30:06 66° NNW
STARLINK-1165 3.7 22:26:51 10° NW 22:30:35 71° NW 22:30:35 71° NW
Cosmos 676 Rocket 3.9 22:25:51 10° S 22:31:11 65° ESE 22:31:22 65° E
Cosmos 407 Rocket 4.4 22:29:56 10° SSW 22:35:03 47° WNW 22:40:02 10° N
Intelsat 5-2 Rocket 4.2 22:32:49 10° WNW 22:34:00 26° NW 22:34:00 26° NW
Meteor 2-5 Rocket 4.4 22:30:27 10° NNW 22:35:50 54° W 22:41:21 10° S
Cosmos 1709 Rocket 3.8 22:29:55 10° N 22:35:59 71° E 22:42:07 10° S
STARLINK-1169 4.0 22:31:50 10° NW 22:35:22 62° WNW 22:35:22 62° WNW
Meteosat 1 Rocket2 3.8 22:31:56 10° WSW 22:36:50 63° SSE 22:37:41 57° SE
Fermi 4.4 22:33:40 10° WNW 22:36:52 54° WNW 22:36:52 54° WNW
Cosmos 1726 3.9 22:34:42 10° SSW 22:38:04 31° W 22:41:24 10° NNW
Cosmos 1939 Rocket 4.5 22:35:46 10° S 22:39:34 35° WSW 22:43:16 10° NW
STARLINK-1178 4.3 22:36:50 10° NW 22:40:10 53° WNW 22:40:10 53° WNW
Delta 2 Rocket 4.3 22:46:14 10° W 22:52:02 49° NNW 22:52:29 48° N
Cosmos 1954 Rocket 4.3 22:51:49 10° SSW 22:56:37 64° WSW 22:56:37 64° WSW
IUS-9 SRM-1 3.6 22:40:02 10° W 22:58:43 70° S 22:58:57 69° SSE
MOS 1 Rocket 4.2 23:00:06 45° NW 23:01:15 53° W 23:06:19 10° SSW
Palapa 6 Rocket 4.0 22:55:32 10° W 23:01:02 59° WNW 23:01:02 59° WNW
CZ-2C R/B 4.1 23:15:35 27° NW 23:17:20 34° W 23:22:14 10° SW
